Tracking 27380 objects as of 6-Jun-2023
HD Live streaming from Space Station
objects crossing your sky now

STARLINK 1030

Track STARLINK 1030 now!
10-day predictions
STARLINK 1030 is classified as:


NORAD ID: 44735
Int'l Code: 2019-074Y
Perigee: 553.5 km
Apogee: 555.0 km
Inclination: 53.1 °
Period: 95.6 minutes
Semi major axis: 6925 km
RCS: Unknown
Launch date: November 11, 2019
Source: United States (US)
Launch site: AIR FORCE EASTERN TEST RANGE (AFETR)
Your satellite tracking list
Your tracking list is empty




NASA's NSSDC Master Catalog

Two Line Element Set (TLE):
1 44735U 19074Y   23157.07051111  .00019229  00000-0  13048-2 0  9999
2 44735  53.0549  49.9989 0001087  90.2736 269.8378 15.06443016196764
Source of the keplerian elements: AFSPC